Temp
-6 -6 -5 -6 -5 -6 -6 -6 -6 -6 -7 -8 -6 -7 -6 -5 -6 -5 -6 -5 -4 -5 -6 -5 -5 -5 -5 -5 -4 -4 -4 -4 -5 -5 -5 -5 -6 -6 -6 -6 -6 -6 -5 -5
-6 -6 -6 -6 -6 -6 -6 -6 -5 -8 -8 -8 -8 -8 -6 -5 -6 -5 -4 -4 -4 -3 -5 -5 -5 -5 -5 -5 -5 -4 -4 -4 -5 -5 -4 -5 -5 -6 -5 -5 -5 -5 -5 -5
-6 -6 -7 -6 -6 -6 -6 -6 -6 -7 -8 -8 -8 -7 -6 -5 -5 -5 -4 -4 -3 -3 -4 -5 -5 -5 -5 -5 -5 -5 -4 -4 -4 -5 -4 -5 -5 -5 -5 -5 -5 -5 -5 -5
-7 -7 -7 -7 -6 -7 -6 -7 -6 -6 -7 -8 -8 -8 -7 -6 -5 -6 -6 -4 -4 -4 -4 -5 -5 -5 -5 -5 -4 -4 -4 -4 -4 -4 -4 -4 -5 -5 -5 -5 -5 -5 -5 -5
-7 -7 -7 -7 -7 -7 -7 -7 -7 -7 -6 -7 -8 -8 -8 -7 -6 -6 -6 -5 -4 -4 -4 -5 -6 -5 -5 -5 -4 -4 -4 -4 -4 -4 -5 -4 -4 -5 -5 -5 -5 -4 -4 -5
-8 -8 -8 -7 -8 -7 -7 -8 -7 -7 -7 -6 -6 -8 -8 -7 -6 -7 -7 -6 -4 -5 -5 -5 -5 -5 -5 -5 -4 -4 -4 -4 -4 -4 -4 -4 -4 -4 -4 -5 -4 -4 -4 -4
-11 -10 -9 -9 -8 -8 -8 -8 -8 -8 -8 -6 -6 -7 -7 -8 -7 -5 -6 -4 -4 -4 -5 -5 -4 -5 -5 -5 -5 -5 -4 -4 -4 -4 -4 -5 -4 -4 -4 -4 -4 -4 -5 -4
-13 -13 -11 -11 -9 -9 -9 -8 -9 -8 -8 -6 -6 -6 -5 -6 -7 -7 -5 -6 -5 -5 -4 -4 -4 -4 -5 -5 -5 -4 -5 -5 -4 -4 -4 -4 -4 -4 -4 -4 -4 -4 -4 -4
-13 -13 -14 -13 -12 -11 -10 -11 -9 -11 -10 -9 -8 -7 -7 -6 -7 -6 -5 -7 -6 -5 -5 -4 -4 -4 -5 -5 -5 -5 -5 -5 -4 -4 -4 -4 -4 -4 -4 -4 -4 -4 -4 -4
-13 -13 -13 -13 -13 -13 -13 -12 -12 -11 -11 -10 -9 -8 -8 -7 -6 -8 -6 -7 -6 -5 -3 -5 -5 -4 -5 -5 -5 -4 -4 -5 -5 -4 -4 -5 -4 -4 -4 -4 -4 -4 -4 -4
-13 -14 -13 -13 -13 -13 -13 -12 -12 -12 -11 -11 -10 -8 -7 -7 -7 -7 -9 -7 -5 -4 -3 -6 -5 -5 -5 -5 -5 -4 -4 -5 -4 -4 -4 -4 -4 -4 -4 -4 -4 -4 -4 -4
-13 -13 -13 -14 -13 -15 -13 -13 -13 -12 -12 -11 -10 -8 -8 -8 -8 -8 -8 -9 -8 -7 -5 -5 -7 -5 -5 -5 -5 -5 -5 -4 -4 -4 -4 -4 -4 -5 -4 -5 -4 -4 -4 -4
-13 -14 -14 -14 -14 -14 -15 -13 -13 -12 -12 -11 -11 -8 -9 -8 -8 -9 -9 -9 -9 -9 -7 -7 -5 -4 -4 -5 -5 -5 -5 -5 -5 -4 -4 -4 -4 -4 -5 -5 -5 -4 -4 -4
-15 -15 -16 -15 -16 -16 -16 -16 -14 -14 -13 -11 -10 -9 -10 -9 -9 -9 -10 -9 -9 -9 -10 -9 -7 -6 -5 -5 -5 -5 -5 -5 -5 -4 -4 -4 -4 -4 -5 -5 -5 -5 -5 -5
-18 -17 -16 -16 -16 -16 -16 -16 -16 -14 -13 -13 -12 -10 -10 -9 -10 -10 -10 -9 -8 -9 -9 -9 -8 -5 -5 -5 -5 -5 -5 -5 -5 -4 -4 -4 -4 -4 -4 -4 -5 -5 -5 -5
-19 -19 -18 -16 -17 -16 -16 -16 -15 -15 -13 -12 -12 -10 -11 -10 -9 -10 -10 -10 -9 -8 -9 -7 -5 -4 -4 -4 -5 -5 -5 -6 -6 -5 -4 -4 -4 -4 -4 -4 -5 -5 -5 -5
-20 -20 -20 -19 -19 -18 -17 -16 -16 -15 -14 -13 -11 -10 -11 -9 -10 -10 -9 -9 -8 -8 -8 -8 -8 -6 -4 -6 -5 -7 -6 -6 -6 -5 -5 -4 -4 -4 -4 -5 -4 -5 -5 -5
-21 -22 -21 -21 -21 -19 -17 -16 -17 -15 -14 -13 -12 -11 -11 -11 -11 -10 -9 -9 -8 -9 -8 -8 -8 -7 -6 -6 -6 -7 -6 -6 -6 -6 -5 -5 -5 -5 -5 -5 -5 -5 -5 -5
-21 -22 -23 -22 -21 -20 -18 -19 -18 -18 -16 -16 -14 -12 -12 -14 -10 -11 -10 -9 -9 -9 -8 -8 -8 -7 -6 -6 -7 -6 -6 -6 -6 -6 -6 -6 -5 -5 -5 -5 -5 -5 -5 -5
-21 -21 -22 -22 -21 -20 -19 -19 -19 -18 -17 -16 -15 -13 -13 -11 -12 -10 -9 -9 -8 -8 -9 -8 -8 -8 -7 -7 -6 -6 -6 -6 -7 -7 -7 -7 -6 -5 -5 -5 -5 -5 -5 -5
-21 -21 -21 -21 -21 -21 -20 -19 -19 -19 -19 -18 -16 -15 -13 -12 -11 -10 -10 -10 -10 -9 -9 -9 -9 -8 -8 -7 -7 -7 -6 -6 -6 -7 -7 -7 -7 -6 -6 -5 -5 -5 -5 -5
-21 -21 -21 -21 -21 -20 -21 -20 -20 -19 -19 -19 -17 -16 -14 -14 -12 -12 -10 -9 -10 -9 -9 -9 -9 -9 -8 -7 -7 -7 -6 -7 -7 -7 -7 -7 -7 -7 -6 -6 -5 -5 -5 -5
-21 -21 -21 -21 -21 -21 -21 -21 -20 -20 -20 -19 -18 -17 -15 -15 -14 -12 -12 -11 -10 -10 -9 -10 -10 -9 -9 -8 -8 -8 -7 -7 -7 -7 -6 -7 -7 -7 -7 -6 -6 -5 -5 -5
-21 -21 -22 -21 -21 -21 -21 -22 -21 -20 -20 -20 -19 -19 -17 -15 -14 -14 -12 -12 -11 -10 -10 -10 -10 -10 -9 -9 -8 -8 -8 -8 -7 -8 -7 -7 -7 -7 -7 -7 -6 -5 -5 -5
-21 -22 -21 -22 -21 -21 -21 -21 -21 -21 -21 -20 -20 -19 -17 -16 -14 -14 -14 -13 -12 -11 -10 -10 -11 -10 -10 -9 -8 -8 -7 -7 -7 -8 -8 -8 -7 -7 -7 -7 -6 -6 -6 -5
-21 -21 -21 -21 -22 -21 -21 -21 -21 -21 -21 -21 -20 -20 -18 -16 -15 -14 -14 -14 -12 -12 -11 -10 -10 -10 -10 -9 -8 -9 -8 -8 -8 -8 -8 -7 -7 -7 -7 -7 -7 -7 -6 -6
Height
5838 5841 5846 5851 5853 5856 5858 5862 5868 5873 5876 5878 5879 5877 5879 5885 5887 5885 5886 5890 5888 5894 5898 5901 5905 5907 5909 5914 5917 5921 5925 5927 5931 5933 5935 5937 5940 5940 5941 5941 5942 5943 5944 5944
5832 5837 5841 5843 5847 5849 5852 5856 5862 5868 5873 5876 5878 5872 5876 5881 5878 5867 5881 5887 5887 5891 5896 5900 5903 5906 5909 5912 5916 5920 5924 5927 5930 5933 5936 5939 5940 5942 5942 5943 5944 5946 5947 5948
5825 5833 5834 5837 5840 5844 5847 5851 5858 5861 5867 5872 5876 5871 5869 5875 5875 5879 5880 5888 5887 5889 5895 5898 5902 5905 5908 5911 5915 5918 5922 5925 5929 5932 5936 5939 5941 5943 5944 5945 5946 5948 5949 5951
5818 5824 5825 5830 5834 5838 5842 5847 5852 5854 5858 5863 5868 5868 5860 5870 5865 5873 5880 5883 5886 5888 5892 5897 5900 5903 5906 5909 5913 5917 5920 5924 5928 5932 5936 5939 5942 5944 5945 5947 5948 5949 5951 5953
5810 5814 5817 5822 5828 5831 5835 5839 5844 5847 5852 5854 5860 5865 5874 5863 5869 5874 5873 5880 5884 5887 5889 5894 5898 5900 5902 5906 5911 5914 5918 5922 5927 5931 5935 5938 5942 5945 5946 5948 5949 5951 5953 5954
5798 5802 5808 5815 5817 5822 5827 5830 5836 5840 5844 5844 5852 5859 5864 5858 5868 5872 5874 5875 5882 5885 5886 5890 5893 5896 5900 5903 5909 5914 5917 5920 5925 5929 5933 5937 5941 5944 5947 5948 5950 5952 5954 5955
5788 5793 5799 5803 5807 5814 5818 5822 5828 5831 5833 5839 5848 5849 5854 5864 5863 5868 5871 5871 5878 5881 5884 5886 5891 5895 5897 5901 5905 5910 5915 5919 5922 5927 5932 5935 5938 5943 5947 5949 5951 5952 5954 5955
5780 5786 5790 5797 5798 5806 5809 5815 5820 5825 5831 5840 5843 5840 5849 5860 5860 5855 5864 5867 5869 5872 5879 5884 5888 5891 5894 5897 5901 5905 5911 5915 5919 5924 5929 5932 5936 5940 5944 5947 5950 5951 5953 5955
5773 5777 5784 5785 5790 5796 5804 5803 5817 5821 5829 5832 5839 5841 5846 5855 5856 5855 5854 5860 5864 5862 5873 5880 5885 5890 5892 5894 5897 5901 5906 5910 5915 5920 5925 5929 5933 5938 5942 5944 5948 5951 5953 5954
5766 5767 5775 5779 5782 5788 5791 5804 5809 5811 5818 5823 5833 5840 5841 5847 5851 5851 5852 5857 5860 5851 5862 5869 5877 5885 5890 5891 5893 5896 5901 5905 5910 5915 5921 5926 5930 5934 5938 5942 5946 5949 5951 5953
5755 5758 5769 5768 5771 5779 5785 5790 5797 5805 5812 5816 5826 5834 5844 5842 5846 5850 5841 5849 5853 5853 5844 5863 5868 5876 5883 5888 5890 5893 5897 5901 5906 5913 5917 5922 5927 5931 5935 5939 5943 5947 5949 5952
5743 5749 5755 5761 5768 5770 5773 5777 5788 5792 5799 5807 5819 5828 5833 5837 5836 5841 5846 5843 5846 5846 5837 5808 5859 5870 5876 5881 5886 5889 5892 5897 5902 5907 5912 5917 5921 5926 5932 5936 5940 5944 5947 5950
5732 5739 5740 5749 5757 5761 5764 5769 5774 5782 5794 5797 5812 5820 5828 5831 5837 5835 5835 5842 5841 5838 5837 5843 5853 5861 5868 5876 5880 5885 5888 5892 5896 5902 5908 5912 5917 5922 5928 5933 5936 5940 5944 5946
5716 5721 5727 5733 5745 5742 5747 5757 5765 5771 5780 5794 5798 5815 5821 5823 5824 5824 5825 5823 5830 5834 5841 5850 5854 5856 5862 5871 5875 5880 5883 5887 5891 5897 5902 5907 5913 5919 5923 5928 5932 5936 5939 5942
5701 5704 5710 5715 5723 5721 5732 5741 5747 5756 5766 5773 5785 5804 5785 5797 5801 5805 5813 5822 5825 5827 5832 5838 5840 5849 5855 5849 5870 5875 5879 5883 5886 5891 5896 5902 5907 5911 5916 5922 5927 5931 5935 5938
5691 5690 5691 5698 5708 5713 5718 5728 5739 5745 5748 5758 5769 5767 5766 5786 5789 5794 5795 5800 5807 5814 5819 5825 5832 5845 5853 5851 5863 5869 5874 5878 5881 5885 5890 5894 5898 5903 5910 5915 5921 5925 5929 5934
5683 5682 5681 5683 5693 5697 5702 5714 5725 5734 5746 5750 5760 5772 5769 5767 5771 5775 5779 5785 5790 5800 5812 5824 5835 5840 5845 5841 5844 5860 5867 5871 5877 5880 5883 5888 5893 5898 5904 5909 5914 5920 5925 5928
5676 5673 5674 5676 5678 5683 5702 5709 5713 5721 5736 5745 5756 5754 5749 5745 5752 5760 5768 5772 5786 5795 5807 5814 5823 5829 5838 5838 5831 5855 5859 5866 5872 5875 5879 5882 5887 5892 5897 5903 5909 5914 5919 5923
5670 5668 5667 5668 5671 5677 5685 5687 5697 5698 5716 5717 5719 5726 5724 5715 5745 5746 5755 5766 5777 5787 5796 5803 5811 5819 5826 5831 5837 5846 5854 5863 5867 5872 5875 5877 5881 5885 5890 5897 5903 5908 5913 5917
5664 5662 5662 5665 5666 5670 5672 5679 5683 5691 5700 5702 5711 5713 5720 5728 5739 5737 5748 5757 5769 5780 5787 5794 5802 5810 5817 5823 5830 5836 5845 5853 5863 5868 5871 5872 5875 5879 5884 5889 5895 5900 5904 5910
5660 5658 5657 5662 5663 5665 5668 5667 5673 5678 5681 5681 5693 5703 5714 5718 5721 5737 5738 5749 5762 5771 5778 5786 5794 5802 5810 5817 5825 5832 5840 5851 5856 5859 5864 5867 5870 5873 5877 5881 5887 5893 5898 5902
5657 5657 5656 5655 5656 5661 5657 5659 5660 5662 5664 5671 5680 5691 5701 5703 5709 5717 5729 5740 5755 5761 5770 5777 5787 5795 5803 5809 5818 5825 5832 5839 5846 5852 5857 5862 5865 5867 5871 5875 5880 5885 5891 5895
5651 5651 5651 5651 5650 5650 5647 5650 5646 5648 5652 5658 5664 5671 5680 5693 5701 5709 5716 5726 5742 5751 5762 5769 5776 5784 5792 5799 5806 5813 5822 5830 5838 5844 5850 5855 5859 5862 5864 5868 5873 5878 5883 5888
5645 5644 5643 5644 5641 5639 5639 5638 5636 5640 5644 5646 5650 5656 5665 5678 5691 5701 5707 5715 5725 5739 5752 5760 5767 5774 5782 5789 5794 5804 5812 5817 5824 5833 5841 5848 5854 5857 5859 5862 5866 5871 5876 5881
5641 5638 5636 5633 5629 5629 5626 5625 5626 5627 5628 5631 5637 5643 5651 5662 5676 5686 5696 5705 5714 5725 5740 5748 5756 5763 5771 5777 5784 5792 5801 5809 5812 5821 5829 5837 5844 5848 5853 5856 5860 5863 5868 5873
5636 5632 5629 5626 5620 5618 5617 5616 5616 5614 5613 5616 5622 5631 5637 5648 5660 5671 5681 5691 5701 5709 5722 5735 5744 5752 5759 5766 5773 5781 5789 5795 5803 5812 5819 5826 5833 5839 5845 5849 5853 5856 5860 5865
Wind_Speed
23 25 24 24 24 26 26 27 24 27 21 21 25 28 27 27 30 26 14 13 10 14 17 17 14 15 16 16 18 19 18 15 15 13 11 11 10 9 9 9 10 11 10 11
29 24 23 26 30 29 30 29 31 20 20 22 23 31 32 27 23 18 12 10 12 13 14 15 14 17 18 18 18 20 20 17 16 16 15 13 11 10 10 11 12 10 10 8
33 29 31 29 30 34 33 34 28 32 23 22 25 29 32 31 33 23 19 16 15 12 11 12 14 17 19 19 19 21 22 21 18 16 17 17 15 12 10 10 10 9 8 8
38 37 38 36 33 34 36 34 33 35 33 27 26 30 35 31 20 16 27 23 20 14 9 10 12 18 18 22 22 23 23 24 21 18 17 18 17 15 13 11 9 8 7 6
39 42 44 42 40 39 37 36 36 37 38 37 30 30 25 33 30 27 34 26 23 19 13 11 14 17 21 23 25 25 25 25 23 20 18 18 17 15 13 12 10 7 6 5
40 45 47 48 45 45 43 41 41 40 39 46 41 29 27 41 26 28 20 24 25 24 18 15 17 17 20 23 25 25 26 26 25 22 20 19 19 18 15 13 12 10 8 5
35 39 45 50 52 49 48 45 42 43 42 47 42 44 37 19 28 28 24 27 26 25 22 20 18 19 19 21 23 26 26 27 27 25 22 20 20 20 18 16 12 11 9 6
24 19 34 42 50 48 52 48 43 43 39 42 41 44 42 27 30 37 31 35 26 29 26 23 19 19 20 18 22 26 27 29 29 27 24 23 21 19 20 18 14 12 9 8
28 26 14 21 29 48 43 44 44 31 27 32 27 34 34 33 25 35 32 34 38 41 30 25 24 22 17 16 18 25 28 31 31 30 28 25 23 19 19 21 18 14 11 10
30 32 29 20 16 27 39 35 35 36 34 35 25 26 31 28 42 32 48 40 47 42 34 34 28 27 22 17 20 22 28 32 33 33 31 28 25 22 20 22 20 18 15 13
38 37 30 41 24 28 31 42 35 30 37 34 27 22 18 31 26 44 45 49 45 39 43 38 31 29 28 24 22 21 26 31 33 34 32 29 27 25 22 21 21 19 18 15
39 40 42 40 46 19 41 37 36 35 42 39 29 25 17 26 29 30 33 38 43 43 27 36 23 28 26 28 22 19 21 27 33 35 36 34 33 30 25 23 21 21 19 17
41 37 43 43 46 48 36 44 47 36 36 37 34 38 20 24 20 27 29 33 34 34 22 18 21 34 26 26 22 18 20 24 30 34 36 37 35 32 27 25 24 23 23 20
46 44 44 49 33 39 37 36 51 37 34 39 41 37 29 28 31 29 35 34 41 38 38 36 35 39 32 25 24 21 18 20 26 31 35 37 36 34 31 28 28 24 24 23
35 40 51 51 51 45 49 43 40 43 46 49 40 42 43 40 44 46 36 31 35 48 45 45 48 40 32 23 27 27 22 21 22 26 32 35 38 36 36 33 31 28 26 26
28 32 43 59 54 58 57 57 53 56 60 57 56 58 44 44 49 43 54 55 50 53 54 53 52 40 38 40 33 32 24 21 21 24 27 33 39 39 36 35 33 33 29 28
23 24 28 40 52 60 62 58 59 56 61 53 69 53 43 52 46 56 60 54 58 59 57 51 45 42 46 26 44 36 28 24 19 21 25 29 34 38 37 36 35 33 31 29
20 18 20 28 26 51 61 59 48 60 54 61 64 68 61 44 43 43 54 64 48 57 50 48 51 48 50 52 37 31 31 25 21 18 22 25 29 32 37 37 35 33 32 31
14 12 23 21 24 23 40 43 43 56 62 66 73 78 72 46 56 49 55 55 52 46 50 51 52 52 50 52 48 41 33 28 24 19 17 22 27 30 33 35 35 34 33 33
17 12 14 25 25 29 26 34 50 47 54 71 73 81 77 72 48 54 55 61 59 54 50 51 54 54 52 51 50 46 39 35 28 22 19 21 26 29 31 33 34 35 34 33
13 16 14 15 30 31 34 22 35 45 58 65 69 75 83 82 81 64 65 58 50 54 53 53 55 55 52 53 50 48 46 38 33 28 25 24 24 25 28 32 33 33 33 33
11 12 16 16 20 25 38 37 35 45 45 51 66 71 75 84 83 78 72 68 54 54 50 52 55 55 54 53 52 53 52 47 42 33 29 25 24 25 27 30 32 32 32 31
11 13 14 19 20 25 35 41 54 41 52 50 52 65 74 75 85 93 77 77 69 52 46 50 54 57 58 57 56 60 62 50 45 36 33 29 26 25 27 28 32 33 31 29
18 18 20 22 25 32 33 38 37 46 52 53 57 54 61 69 72 81 92 86 78 74 67 63 58 56 58 60 60 58 54 52 48 40 36 35 31 28 26 28 32 33 32 29
19 21 23 27 31 26 33 33 41 45 48 60 60 56 60 61 64 70 75 82 87 86 79 67 62 59 58 59 59 54 48 48 45 46 41 38 39 32 29 27 29 33 33 33
19 18 19 19 21 20 25 26 28 32 34 46 60 54 59 62 61 64 63 65 71 72 73 72 68 64 59 60 61 58 54 48 45 45 45 45 43 37 34 31 28 29 32 34
Wind_Direction
240 237 238 233 232 228 231 213 231 233 245 239 247 239 252 246 247 202 224 243 232 225 225 225 228 225 210 214 213 203 196 194 192 175 169 169 153 142 142 128 117 106 100 96
238 241 238 232 228 227 229 226 215 219 221 240 249 261 250 248 244 214 212 238 242 219 223 231 227 226 214 207 212 208 202 198 197 183 170 169 159 159 158 146 128 119 113 99
237 233 231 233 233 231 229 231 221 216 210 235 225 253 262 252 237 215 234 230 236 209 207 230 227 225 220 209 209 210 207 203 202 192 173 175 171 170 163 152 146 141 136 123
233 231 232 229 232 234 233 232 229 224 214 217 234 231 268 265 206 246 213 226 225 227 225 245 242 223 220 216 210 209 212 209 207 203 189 181 184 178 170 177 177 159 148 145
233 229 231 231 228 231 233 230 227 229 226 220 212 239 217 261 260 263 267 220 221 224 224 232 229 226 223 218 214 209 211 213 209 210 204 191 191 188 185 186 177 174 170 170
235 229 228 229 229 226 228 231 231 229 226 230 224 218 236 241 248 259 242 240 227 218 224 226 219 223 226 221 218 216 215 214 215 214 214 204 198 194 195 199 190 190 191 183
241 236 235 228 231 227 227 230 228 230 230 231 232 226 225 232 266 248 253 245 224 222 219 229 233 233 226 225 221 218 221 222 219 219 219 214 207 200 199 206 202 207 208 214
235 242 241 235 232 232 229 228 230 231 234 239 239 240 238 215 212 256 259 249 242 227 227 226 236 232 219 225 225 217 219 221 224 222 218 221 215 206 203 207 208 216 215 225
242 238 182 230 242 237 224 230 224 227 236 245 243 255 245 218 215 221 213 240 232 220 232 233 233 226 220 228 229 222 214 222 222 223 219 222 222 212 210 211 209 215 219 227
246 246 220 201 217 224 231 220 230 219 225 227 230 233 263 247 218 234 226 220 228 217 222 227 221 230 228 242 236 229 216 219 221 219 221 219 221 222 215 214 209 214 218 222
248 243 227 222 205 205 223 211 205 224 229 223 226 221 237 265 257 233 246 240 241 218 182 229 223 223 238 243 241 237 225 217 221 219 221 224 223 225 219 218 215 214 220 225
249 244 238 226 224 224 208 209 215 214 208 219 214 195 231 227 259 261 239 245 247 234 241 224 207 225 230 242 236 242 238 224 223 220 223 223 223 226 222 222 223 219 221 229
256 249 237 233 229 227 226 217 205 211 209 200 220 185 235 218 217 252 246 212 229 255 262 277 248 249 228 234 231 239 241 233 225 222 223 226 225 226 226 222 226 221 221 225
253 240 240 230 215 221 221 230 214 216 212 199 199 190 248 234 203 214 213 210 209 214 212 215 223 236 239 227 231 230 240 239 234 227 224 226 227 228 229 226 227 226 224 226
281 256 236 229 217 210 213 210 211 209 206 207 200 183 228 219 209 210 212 215 227 212 213 206 216 220 212 206 231 229 238 240 238 233 230 225 226 226 229 228 227 228 228 227
284 287 244 231 220 216 212 219 223 208 201 202 202 197 226 197 198 204 214 211 219 220 215 220 225 222 223 220 224 227 234 234 236 236 233 227 226 226 226 227 226 228 230 231
286 254 258 239 226 215 217 212 217 221 208 203 199 194 207 217 207 203 216 215 218 225 221 220 223 224 219 228 222 217 229 228 236 231 232 232 229 229 229 227 227 229 231 233
289 276 247 235 237 226 221 216 221 223 218 210 202 209 210 220 209 208 209 212 216 217 221 221 216 219 216 230 241 225 224 225 231 237 234 235 231 229 231 231 229 228 231 235
290 267 251 255 231 212 219 225 220 216 215 214 213 209 213 222 201 207 213 214 213 219 217 216 213 216 221 222 230 227 226 226 231 229 237 235 235 231 229 231 231 232 235 236
283 246 232 238 228 219 207 202 214 211 219 221 217 213 219 224 216 206 204 214 215 217 215 216 213 215 219 222 225 225 222 214 220 226 232 237 232 233 230 227 229 230 231 233
287 251 238 259 232 227 219 230 216 214 224 225 223 220 216 216 226 222 221 214 208 210 213 212 213 217 220 222 224 228 228 226 219 218 226 230 235 232 231 229 227 229 232 234
277 262 262 258 236 229 236 220 223 221 226 230 228 225 218 222 218 222 220 221 208 206 208 211 214 218 222 224 222 230 228 220 224 222 227 229 232 232 230 230 229 228 232 239
296 288 265 255 251 245 237 235 240 232 226 226 228 228 226 222 221 220 220 221 209 199 211 217 216 217 221 227 227 228 225 216 213 219 227 229 234 231 230 228 225 226 232 236
308 309 295 283 267 251 255 242 240 245 238 234 231 228 227 226 223 221 224 224 223 221 218 222 221 219 220 224 231 231 235 220 208 213 225 231 236 233 233 230 229 225 231 236
312 303 297 287 281 268 252 253 242 246 246 237 229 229 227 224 224 224 224 224 226 228 224 222 224 223 221 224 229 233 228 225 216 210 216 232 235 234 233 235 231 226 228 233
329 312 302 299 289 281 262 258 250 250 246 241 232 225 223 223 221 223 227 228 225 226 225 221 223 224 223 224 227 229 232 231 228 231 220 232 231 236 236 236 230 232 230 232